www.pogodaiklimat.ru

ПОГОДА в Шони, OK

  • Прогноз погоды в Шони
  • Монитор погоды в Шони
  • Климат в Шони

АРХИВ ПОГОДЫ в Шони

Время (UTC), дата Ветер
(напр.,м/с)
 
Видим.   Явления Облачность Т
(С)
Тd
(С)
f
(%)
Тe
(С)
Тes
(С)
Комфортность

P
(гПа)

Po
(гПа)
Тmin
(С)
Tmax
(С)
R
(мм)
SD
(см)
03:35 20.08 Ю  16 км    ясно  +28.0  +21.1  66  +35  +35  очень
душно 
  977.0         
03:55 20.08 Ю  16 км    ясно  +27.9  +21.1  67  +35  +35  очень
душно 
  977.0         
04:15 20.08 Ю  16 км    ясно  +27.6  +21.1  68  +35  +35  очень
душно 
  977.0         
04:35 20.08 Ю  16 км    ясно  +27.5  +21.1  68  +35  +35  очень
душно 
  977.0         
04:55 20.08 Ю  16 км    ясно  +27.5  +21.1  68  +35  +35  очень
душно 
  977.0  +27.4  +34.2     
05:15 20.08 Ю  16 км    ясно  +27.5  +21.1  68  +35  +35  очень
душно 
  977.0         
05:35 20.08 Ю  16 км    ясно  +27.7  +21.0  67  +35  +35  очень
душно 
  977.0         
05:55 20.08 Ю  16 км    ясно  +27.5  +21.0  68  +35  +35  очень
душно 
  977.0         
06:15 20.08 Ю  16 км    ясно  +27.0  +21.0  70  +34  +34  очень
душно 
  977.0         
06:35 20.08 Ю  16 км    ясно  +26.5  +21.0  72  +33  +33  очень
душно 
  976.7         
06:55 20.08 Ю  16 км    ясно  +26.3  +21.0  73  +33  +33  очень
душно 
  976.7         
07:15 20.08 Ю  16 км    ясно  +25.8  +21.0  75  +32  +32  очень
душно 
  977.0         
07:35 20.08 Ю  16 км    ясно  +25.7  +21.0  75  +32  +32  очень
душно 
  977.0         
07:55 20.08 Ю  16 км    ясно  +24.7  +20.8  79  +31  +31  очень
душно 
  977.0         
08:15 20.08 Ю  16 км    ясно  +24.8  +21.0  79  +31  +31  очень
душно 
  977.0         
08:35 20.08 Ю  16 км    ясно  +24.1  +20.8  82  +30  +30  очень
душно 
  977.0         
08:55 20.08 Ю  16 км    ясно  +24.2  +21.0  82  +30  +30  очень
душно 
  976.7         
09:15 20.08 Ю  16 км    ясно  +24.1  +21.0  83  +30  +30  очень
душно 
  977.0         
09:35 20.08 Ю  16 км    ясно  +24.0  +21.0  83  +30  +30  очень
душно 
  977.0         
09:55 20.08 Ю  16 км    ясно  +24.0  +21.0  83  +30  +30  очень
душно 
  977.3         
10:15 20.08 Ю  16 км    ясно  +24.0  +20.9  83  +30  +30  очень
душно 
  977.3         
10:35 20.08 Ю  16 км    ясно  +23.6  +20.8  84  +29  +29  душно    977.3         
10:55 20.08 Ю  16 км    ясно  +23.5  +20.8  85  +29  +29  душно    977.7  +23.1  +27.7     
11:15 20.08 Ю  16 км    ясно  +23.4  +21.0  86  +31  +31  очень
душно 
  977.7         
11:35 20.08 Ю  16 км    ясно  +24.1  +21.3  84  +30  +30  очень
душно 
  977.7         
11:55 20.08 Ю  16 км    ясно  +25.3  +21.6  80  +32  +32  очень
душно 
  977.7         
12:15 20.08 Ю  16 км    ясно  +26.1  +21.5  76  +33  +34  очень
душно 
  978.0         
12:35 20.08 Ю  16 км    ясно  +26.9  +21.5  72  +34  +35  очень
душно 
  978.0         
12:55 20.08 Ю  16 км    ясно  +27.9  +21.8  69  +36  +37  очень
душно 
  978.0         
13:15 20.08 Ю  16 км    ясно  +28.8  +22.0  67  +37  +40  очень
душно 
  978.0         
13:35 20.08 Ю  16 км    ясно  +29.7  +22.2  64  +39  +41  очень
душно 
  978.3         
13:55 20.08 Ю  16 км    ясно  +30.6  +22.4  62  +40  +42  очень
душно 
  978.3         
14:15 20.08 Ю  16 км    ясно  +31.0  +22.4  60  +40  +46  очень
душно 
  978.3         
14:35 20.08 Ю  16 км    ясно  +32.0  +22.2  56  +41  +44  опасность
перегрева 
  978.6         
14:55 20.08 Ю  5
{8} 
16 км    ясно  +32.6  +22.1  54  +41  +45  опасность
перегрева 
  978.6         
15:15 20.08 Ю  4
{8} 
16 км    ясно  +33.1  +22.1  53  +42  +50  опасность
перегрева 
  979.0         
15:35 20.08 Ю  16 км    ясно  +33.4  +21.9  51  +42  +49  опасность
перегрева 
  978.6         
15:55 20.08 Ю  16 км    ясно  +34.0  +21.6  48  +42  +47  опасность
перегрева 
  978.3         
16:15 20.08 Ю  16 км    ясно  +34.5  +21.9  48  +43  +51  опасность
перегрева 
  978.3         
16:35 20.08 ЮЗ  16 км    ясно  +34.6  +21.4  46  +42  +57  опасность
перегрева 
  978.0         
16:55 20.08 Ю  16 км    ясно  +35.1  +21.7  46  +43  +53  опасность
перегрева 
  977.7  +23.1  +35.2     
17:15 20.08 Ю  16 км    ясно  +35.3  +21.7  45  +43  +54  опасность
перегрева 
  977.7         
17:35 20.08 Ю  16 км    ясно  +35.6  +21.4  44  +43  +57  опасность
перегрева 
  977.7         
17:55 20.08 Ю  16 км    ясно  +36.0  +21.5  43  +44  +53  опасность
перегрева 
  977.3         
18:15 20.08 Ю  16 км    ясно  +36.6  +21.6  42  +44  +58  опасность
перегрева 
  977.3         
18:35 20.08 Ю  4
{7} 
16 км    ясно  +36.0  +21.8  44  +44  +54  опасность
перегрева 
  977.0         
18:55 20.08 Ю  16 км    ясно  +36.5  +22.0  43  +45  +50  опасность
перегрева 
  977.0         
19:15 20.08 Ю  4
{8} 
16 км    ясно  +36.3  +22.1  44  +45  +54  опасность
перегрева 
  976.7         

 

Местоположение метеостанции Shawnee Municipal Airport: широта 35.3572 долгота -96.9428 высота над уровнем моря 327 м.

В архиве по умолчанию представлена погода в Шони за последние 1-2 суток. Обновление информации о фактической погоде в базе происходит ежечасно! Архивные данные за месяц целиком и за предыдущие месяцы Вы можете получить, выбрав интересующий диапазон дат из раскрывающегося списка и нажав кнопку "Ввод!".

Внимание! Архив погоды МЕТАР в базе сайта хранится не более 60 дней. Нет смысла пытаться выбрать более раннюю дату.

Внимание! Время в таблицах - всемирное. Для получения местного времени необходимо прибавить поправку, которая в Шони равна -6 ч.

Ветер - указаны скорость ветра в м/с и направление, откуда дует ветер: С - северный, СВ - северо-восточный, В - восточный, ЮВ - юго-восточный, Ю - южный, ЮЗ - юго-западный, З - западный, СЗ - северо-западный.
Видимость - горизонтальная дальность видимости в метрах или километрах. При видимости от 1 до 10 км при отсутствии осадков обычно наблюдается дымка, при ухудшении видимости до 1 км и менее - туман. В сухую погоду видимость может ухудшаться дымом, пылью или мглою.
Атмосферные явления - указаны явления, наблюдавшиеся в указанный момент времени.
Облачность - указаны через наклонную черту верхняя и нижняя облачность в баллах и высота нижней границы облаков в метрах. Внимание: облачность, как и прочие метеорологические величины в США измеряются автоматическими метеостанциями. Указанные значения в баллах носят условный характер и показывают процент времени, в течение которого, в среднем, лазерный луч высотомера отражался от облаков обратно.
T - Температура воздуха - температура, измеренная на высоте 2 м над землей.
Td - Температура точки росы - температура, при понижении до которой содержащийся в воздухе водяной пар достигнет насыщения.
f - Относительная влажность воздуха - влажноcть воздуха, измеренная на высоте 2 м над землей.
Te - Эффективная температура - температура, которую ощущает одетый по сезону человек в тени. Характеристика душности погоды. При расчете учитывается влияние влажности воздуха и скорости ветра на теплоощущения человека.
Tes - Эффективная температура на солнце - температура, которую ощущает человек, с поправкой на солнечный нагрев. Характеристика знойности погоды. Зависит от высоты солнца над горизонтом, облачности и скорости ветра. Ночью, в пасмурную погоду, а также при ветре 12 м/с и более поправка равна нулю.
P - Атмосферное давление - приведенное к уровню моря атмосферное давление.
Po - Атмосферное давление - измеренное на уровне метеостанции атмосферное давление.
Tmin - Минимальная температура - минимум температуры воздуха на высоте 2 м над землей.
Tmax - Максимальная температура - максимум температуры воздуха на высоте 2 м над землей.
R - Количество осадков - Количество выпавших осадков за 3 или 6 часов, мм.
SD - Снежный покров - Высота снежного покрова, см.